Location: Asis
(14.1331°N, 120.9056°E)
Time: 05:16:00
(UTC+00:00)

Ariane H10+ - Pass Details

Date: 15 January 2026
Orbit: 287 x 20707 km, 6.5° (Epoch: 10 February)

Event Time Altitude Azimuth Distance (km) Brightness Sun altitude
Rises 10:51:49 0° 263° (W) 6,649 9.0 -15.6°
Reaches altitude 10° 10:58:48 10° 255° (WSW) 3,555 7.2 -17.2°
Maximum altitude 11:04:48 29° 196° (SSW) 1,088 3.6 -18.6°
Enters shadow 11:06:20 19° 148° (SSE) 1,126 3.3 -18.9°
